User: anonymous   Login
Location: Unspecified
(0.0000°N, 0.0000°E)
Time: 10:04:17
(UTC+00:00)
Language:

STARLINK-5948 - Orbit

View from above orbital plane
View from above orbital plane
View from above satellite
View from above satellite

Ground track
Ground track

The orbit is defined by the following mean orbital elements,

1 55991U          26145.54448687 +.00000000 +00000-0 +57941-4 0 00006
2 55991  43.0059 342.1417 0001785 254.5163 105.5492 15.27572338    00
Epoch (UTC): 25 May 2026 13:04:03
Eccentricity: 0.0001785
inclination: 43.0059°
perigee height: 482 km
apogee height: 484 km
right ascension of ascending node: 342.1417°
argument of perigee: 254.5163°
revolutions per day: 15.27572338
mean anomaly at epoch: 105.5492°

The dashed part of the orbit path shows where the satellite is in the earth's shadow,  

DLR